Location: Launois
(49.6535°N, 4.5395°E)
Time: 12:35:20
(UTC+00:00)

Cosmos 1356 Rocket - Pass Details

Date: 23 May 2024
Orbit: 530 x 579 km, 81.2° (Epoch: 16 June)

Event Time Altitude Azimuth Distance (km) Brightness Sun altitude
Exits shadow 01:22:28 25° 241° (WSW) 1,133 4.4 -16.0°
Maximum altitude 01:24:09 37° 289° (WNW) 876 4.2 -15.9°
Drops below altitude 10° 01:28:01 10° 358° (N) 1,873 7.0 -15.6°
Sets 01:30:22 0° 6° (N) 2,784 8.3 -15.5°
